Weather History for Punta Gorda, FL

Change the Weather History Date:

Sunday, April 6, 2014

  Actual Average Record
Temperature  
Mean Temperature 75 °F -  
Max Temperature 87 °F 81 °F 91 °F (1999)
Min Temperature 63 °F 58 °F 48 °F (2004)
Cooling Degree Days 10    
Growing Degree Days 25 (Base 50)    
Moisture  
Dew Point 65 °F    
Average Humidity 74    
Maximum Humidity 96    
Minimum Humidity 49    
Precipitation  
Precipitation 0.00 in - - ()
Sea Level Pressure  
Sea Level Pressure 30.00 in    
Wind  
Wind Speed 5 mph (SSW)    
Max Wind Speed 17 mph    
Max Gust Speed -    
Visibility 10 miles    
Events      
Averages and records for this station are not official NWS values.
T = Trace of Precipitation, MM = Missing Value Source: NWS Daily Summary

Daily Weather History Graph

Daily Weather History Graph

Search for Another Location

Airport:

Trip Planner

Search our weather history database for the weather conditions in past years. The results will help you decide how hot, cold, wet, or windy it might be!

Date:

Astronomy

Apr. 06, 2014 Rise Set
Actual Time 7:13 AM EDT 7:47 PM EDT
Civil Twilight 6:49 AM EDT 8:11 PM EDT
Nautical Twilight 6:22 AM EDT 8:38 PM EDT
Astronomical Twilight 5:54 AM EDT 9:06 PM EDT
Moon 12:30 PM EDT (4/6) 1:25 AM EDT (4/6)
Length of Visible Light 13h 21m
Length of Day
12h 34m
Waxing Crescent, 43% of the Moon is Illuminated
Apr 6
Waxing Crescent
Apr 7
First Quarter
Apr 15
Full
Apr 22
Last Quarter
Apr 29
New

Hourly Weather History & Observations

Time (EDT) Temp. Heat Index Dew Point Humidity Pressure Visibility Wind Dir Wind Speed Gust Speed Precip Events Conditions
12:53 AM 66.9 °F - 64.9 °F 93% 30.06 in 10.0 mi Calm Calm - N/A   Partly Cloudy
1:53 AM 64.9 °F - 63.0 °F 93% 30.05 in 9.0 mi Calm Calm - N/A   Clear
2:53 AM 64.9 °F - 62.1 °F 90% 30.04 in 10.0 mi Calm Calm - N/A   Clear
3:53 AM 64.0 °F - 61.0 °F 90% 30.02 in 8.0 mi Calm Calm - N/A   Clear
4:53 AM 64.0 °F - 62.1 °F 93% 30.02 in 10.0 mi South 5.8 mph - N/A   Clear
5:53 AM 64.0 °F - 63.0 °F 96% 30.01 in 8.0 mi SSE 5.8 mph - N/A   Clear
6:53 AM 63.0 °F - 61.0 °F 93% 30.02 in 9.0 mi East 4.6 mph - N/A   Clear
7:53 AM 64.9 °F - 63.0 °F 93% 30.03 in 9.0 mi SE 4.6 mph - N/A   Clear
8:53 AM 72.0 °F - 66.0 °F 81% 30.03 in 10.0 mi SSE 10.4 mph - N/A   Clear
9:53 AM 77.0 °F - 68.0 °F 74% 30.03 in 10.0 mi SSE 12.7 mph - N/A   Clear
10:53 AM 81.0 °F 82.5 °F 64.0 °F 56% 30.02 in 10.0 mi South 15.0 mph - N/A   Clear
11:53 AM 84.0 °F 85.4 °F 64.0 °F 51% 30.01 in 10.0 mi South 13.8 mph - N/A   Clear
12:53 PM 84.9 °F 86.1 °F 64.0 °F 49% 30.01 in 10.0 mi South 13.8 mph - N/A   Clear
1:53 PM 87.1 °F 89.2 °F 66.0 °F 49% 30.00 in 10.0 mi South 8.1 mph - N/A   Scattered Clouds
2:53 PM 84.9 °F 87.1 °F 66.0 °F 53% 29.99 in 10.0 mi WSW 15.0 mph - N/A   Partly Cloudy
3:53 PM 84.0 °F 86.3 °F 66.0 °F 55% 29.97 in 10.0 mi WSW 17.3 mph - N/A   Clear
4:53 PM 82.9 °F 85.0 °F 66.0 °F 56% 29.96 in 10.0 mi West 15.0 mph - N/A   Clear
5:53 PM 82.0 °F 83.4 °F 64.0 °F 54% 29.96 in 10.0 mi WSW 10.4 mph - N/A   Clear
6:53 PM 80.1 °F 81.9 °F 64.9 °F 60% 29.96 in 10.0 mi West 11.5 mph - N/A   Clear
7:53 PM 78.1 °F - 66.0 °F 66% 29.96 in 10.0 mi WSW 5.8 mph - N/A   Clear
8:53 PM 75.0 °F - 66.9 °F 76% 29.97 in 10.0 mi WSW 3.5 mph - N/A   Clear
9:53 PM 75.0 °F - 66.9 °F 76% 29.98 in 10.0 mi SW 3.5 mph - N/A   Clear
10:53 PM 70.0 °F - 66.9 °F 90% 29.99 in 10.0 mi Calm Calm - N/A   Unknown
11:53 PM 69.1 °F - 66.0 °F 90% 29.99 in 10.0 mi Calm Calm - N/A   Clear